| time (UTC) | temp F | wind direction | speed MPH | gust MPH | rain 1hr in | rain 24hr in | rain mn in | humidity % | barometer mb |
| 20260904185906 | 98 | 242 | 0.0 | 3.0 | 0.00 | 0.00 | 0.00 | 14 | 1014.4 |
| 20260904185401 | 97 | 310 | 0.0 | 2.0 | 0.00 | 0.00 | 0.00 | 14 | 1014.6 |
| 20260904184901 | 96 | 119 | 1.0 | 7.0 | 0.00 | 0.00 | 0.00 | 14 | 1014.7 |
| 20260904184356 | 98 | 82 | 3.0 | 4.0 | 0.00 | 0.00 | 0.00 | 13 | 1014.8 |
| 20260904183851 | 98 | 346 | 1.0 | 3.0 | 0.00 | 0.00 | 0.00 | 14 | 1014.7 |
| 20260904183346 | 98 | 81 | 3.0 | 3.0 | 0.00 | 0.00 | 0.00 | 14 | 1014.7 |
| 20260904182842 | 96 | 129 | 0.0 | 3.0 | 0.00 | 0.00 | 0.00 | 14 | 1015.0 |
| 20260904182336 | 97 | 85 | 3.0 | 4.0 | 0.00 | 0.00 | 0.00 | 14 | 1015.0 |
| 20260904181832 | 96 | 70 | 2.0 | 4.0 | 0.00 | 0.00 | 0.00 | 14 | 1015.0 |
| 20260904181332 | 96 | 317 | 5.0 | 5.0 | 0.00 | 0.00 | 0.00 | 15 | 1015.1 |
| 20260904180827 | 95 | 219 | 2.0 | 5.0 | 0.00 | 0.00 | 0.00 | 15 | 1015.1 |
| 20260904180323 | 95 | 79 | 3.0 | 5.0 | 0.00 | 0.00 | 0.00 | 15 | 1015.0 |
| 20260904175821 | 95 | 79 | 2.0 | 3.0 | 0.00 | 0.00 | 0.00 | 15 | 1015.0 |
| 20260904175320 | 95 | 88 | 3.0 | 4.0 | 0.00 | 0.00 | 0.00 | 14 | 1014.9 |
| 20260904174815 | 94 | 268 | 2.0 | 2.0 | 0.00 | 0.00 | 0.00 | 14 | 1015.2 |
| 20260904174311 | 93 | 348 | 2.0 | 4.0 | 0.00 | 0.00 | 0.00 | 16 | 1014.9 |
| 20260904173807 | 93 | 41 | 0.0 | 3.0 | 0.00 | 0.00 | 0.00 | 15 | 1015.1 |
| 20260904173302 | 93 | 296 | 0.0 | 3.0 | 0.00 | 0.00 | 0.00 | 15 | 1015.0 |
| 20260904172758 | 91 | 296 | 3.0 | 4.0 | 0.00 | 0.00 | 0.00 | 15 | 1015.2 |
| 20260904172257 | 93 | 35 | 1.0 | 2.0 | 0.00 | 0.00 | 0.00 | 16 | 1015.3 |
| 20260904171753 | 92 | 98 | 0.0 | 1.0 | 0.00 | 0.00 | 0.00 | 15 | 1015.2 |
| 20260904171248 | 93 | 235 | 1.0 | 3.0 | 0.00 | 0.00 | 0.00 | 15 | 1015.2 |
| 20260904170744 | 93 | 203 | 1.0 | 2.0 | 0.00 | 0.00 | 0.00 | 15 | 1015.3 |
| 20260904170239 | 92 | 196 | 0.0 | 2.0 | 0.00 | 0.00 | 0.00 | 15 | 1015.3 |
| 20260904165738 | 91 | 2 | 1.0 | 2.0 | 0.00 | 0.00 | 0.00 | 16 | 1015.1 |
| 20260904165232 | 91 | 12 | 0.0 | 2.0 | 0.00 | 0.00 | 0.00 | 16 | 1015.3 |
| 20260904164732 | 91 | 98 | 3.0 | 3.0 | 0.00 | 0.00 | 0.00 | 16 | 1015.2 |
| 20260904164227 | 90 | 2 | 2.0 | 2.0 | 0.00 | 0.00 | 0.00 | 18 | 1015.2 |
| 20260904163724 | 89 | 83 | 2.0 | 3.0 | 0.00 | 0.00 | 0.00 | 17 | 1015.2 |
| 20260904163219 | 87 | 316 | 3.0 | 3.0 | 0.00 | 0.00 | 0.00 | 18 | 1015.0 |
| 20260904162718 | 87 | 275 | 0.0 | 2.0 | 0.00 | 0.00 | 0.00 | 18 | 1015.0 |
| 20260904162212 | 89 | 237 | 2.0 | 3.0 | 0.00 | 0.00 | 0.00 | 17 | 1015.1 |
| 20260904161708 | 88 | 62 | 0.0 | 3.0 | 0.00 | 0.00 | 0.00 | 17 | 1015.1 |
| 20260904161203 | 87 | 91 | 2.0 | 4.0 | 0.00 | 0.00 | 0.00 | 18 | 1015.1 |
| 20260904160700 | 88 | 210 | 0.0 | 3.0 | 0.00 | 0.00 | 0.00 | 17 | 1015.1 |
| 20260904160154 | 87 | 60 | 0.0 | 2.0 | 0.00 | 0.00 | 0.00 | 18 | 1015.0 |
| 20260904155649 | 86 | 76 | 1.0 | 4.0 | 0.00 | 0.00 | 0.00 | 17 | 1015.0 |
| 20260904155148 | 87 | 98 | 2.0 | 4.0 | 0.00 | 0.00 | 0.00 | 18 | 1014.9 |
| 20260904154647 | 86 | 99 | 3.0 | 4.0 | 0.00 | 0.00 | 0.00 | 19 | 1014.9 |
| 20260904154142 | 86 | 170 | 0.0 | 3.0 | 0.00 | 0.00 | 0.00 | 18 | 1014.7 |
| 20260904153637 | 87 | 83 | 0.0 | 3.0 | 0.00 | 0.00 | 0.00 | 18 | 1014.6 |
| 20260904153137 | 86 | 142 | 0.0 | 2.0 | 0.00 | 0.00 | 0.00 | 19 | 1014.7 |
| 20260904152634 | 87 | 100 | 2.0 | 3.0 | 0.00 | 0.00 | 0.00 | 18 | 1014.7 |
| 20260904152129 | 86 | 348 | 0.0 | 1.0 | 0.00 | 0.00 | 0.00 | 18 | 1014.8 |
| 20260904151624 | 85 | 71 | 2.0 | 2.0 | 0.00 | 0.00 | 0.00 | 18 | 1014.6 |
| 20260904151123 | 85 | 80 | 0.0 | 3.0 | 0.00 | 0.00 | 0.00 | 19 | 1014.8 |
| 20260904150619 | 85 | 59 | 1.0 | 3.0 | 0.00 | 0.00 | 0.00 | 19 | 1014.6 |
| 20260904150114 | 84 | 91 | 2.0 | 4.0 | 0.00 | 0.00 | 0.00 | 19 | 1014.5 |
| 20260904145612 | 84 | 67 | 2.0 | 3.0 | 0.00 | 0.00 | 0.00 | 20 | 1014.6 |
| 20260904145108 | 84 | 81 | 2.0 | 2.0 | 0.00 | 0.00 | 0.00 | 20 | 1014.6 |
| 20260904144604 | 82 | 115 | 1.0 | 2.0 | 0.00 | 0.00 | 0.00 | 21 | 1014.5 |
| 20260904144059 | 81 | 356 | 0.0 | 2.0 | 0.00 | 0.00 | 0.00 | 22 | 1014.6 |
| 20260904143555 | 79 | 68 | 0.0 | 1.0 | 0.00 | 0.00 | 0.00 | 23 | 1014.5 |
| 20260904143051 | 77 | 137 | 1.0 | 2.0 | 0.00 | 0.00 | 0.00 | 24 | 1014.5 |
| 20260904142548 | 76 | 284 | 0.0 | 2.0 | 0.00 | 0.00 | 0.00 | 25 | 1014.6 |
| 20260904142043 | 76 | 218 | 0.0 | 1.0 | 0.00 | 0.00 | 0.00 | 26 | 1014.4 |
| 20260904141538 | 73 | 119 | 0.0 | 2.0 | 0.00 | 0.00 | 0.00 | 27 | 1014.5 |
| 20260904141034 | 71 | 213 | 0.0 | 2.0 | 0.00 | 0.00 | 0.00 | 28 | 1014.3 |
| 20260904140533 | 71 | 249 | 0.0 | 2.0 | 0.00 | 0.00 | 0.00 | 27 | 1014.1 |
| 20260904140028 | 70 | 176 | 0.0 | 2.0 | 0.00 | 0.00 | 0.00 | 28 | 1014.4 |
| 20260904135527 | 70 | 179 | 2.0 | 2.0 | 0.00 | 0.00 | 0.00 | 28 | 1014.3 |
| 20260904135024 | 70 | 220 | 2.0 | 2.0 | 0.00 | 0.00 | 0.00 | 27 | 1014.2 |
| 20260904134518 | 70 | 192 | 0.0 | 2.0 | 0.00 | 0.00 | 0.00 | 27 | 1014.0 |
| 20260904134013 | 70 | 229 | 0.0 | 2.0 | 0.00 | 0.00 | 0.00 | 28 | 1014.0 |
| 20260904133507 | 69 | 209 | 0.0 | 2.0 | 0.00 | 0.00 | 0.00 | 28 | 1014.1 |
| 20260904133003 | 67 | 155 | 1.0 | 2.0 | 0.00 | 0.00 | 0.00 | 31 | 1013.7 |
| 20260904132458 | 68 | 264 | 2.0 | 2.0 | 0.00 | 0.00 | 0.00 | 30 | 1013.7 |
| 20260904131957 | 69 | 212 | 0.0 | 2.0 | 0.00 | 0.00 | 0.00 | 30 | 1013.6 |
| 20260904131453 | 69 | 160 | 1.0 | 1.0 | 0.00 | 0.00 | 0.00 | 31 | 1013.5 |
| 20260904130948 | 68 | 165 | 0.0 | 1.0 | 0.00 | 0.00 | 0.00 | 31 | 1013.4 |
| 20260904130448 | 69 | 256 | 0.0 | 2.0 | 0.00 | 0.00 | 0.00 | 29 | 1013.3 |
| 20260904125948 | 68 | 232 | 2.0 | 4.0 | 0.00 | 0.00 | 0.00 | 30 | 1013.3 |
| 20260904125445 | 69 | 49 | 0.0 | 2.0 | 0.00 | 0.00 | 0.00 | 30 | 1013.2 |
| 20260904124944 | 69 | 46 | 1.0 | 2.0 | 0.00 | 0.00 | 0.00 | 29 | 1013.4 |
| 20260904124440 | 69 | 240 | 1.0 | 2.0 | 0.00 | 0.00 | 0.00 | 29 | 1013.2 |
| 20260904123935 | 70 | 305 | 0.0 | 2.0 | 0.00 | 0.00 | 0.00 | 29 | 1013.1 |
| 20260904123430 | 69 | 279 | 0.0 | 3.0 | 0.00 | 0.00 | 0.00 | 30 | 1013.2 |
| 20260904122925 | 70 | 243 | 1.0 | 2.0 | 0.00 | 0.00 | 0.00 | 29 | 1013.1 |
| 20260904122425 | 68 | 202 | 0.0 | 2.0 | 0.00 | 0.00 | 0.00 | 31 | 1013.2 |
| 20260904121919 | 69 | 242 | 2.0 | 3.0 | 0.00 | 0.00 | 0.00 | 30 | 1013.2 |
| 20260904121416 | 69 | 211 | 0.0 | 1.0 | 0.00 | 0.00 | 0.00 | 30 | 1013.2 |
| 20260904120912 | 70 | 223 | 0.0 | 1.0 | 0.00 | 0.00 | 0.00 | 30 | 1013.2 |
| 20260904120408 | 70 | 299 | 0.0 | 2.0 | 0.00 | 0.00 | 0.00 | 30 | 1013.2 |
| 20260904115903 | 71 | 251 | 0.0 | 2.0 | 0.00 | 0.00 | 0.00 | 29 | 1013.1 |
| 20260904115358 | 71 | 199 | 2.0 | 2.0 | 0.00 | 0.00 | 0.00 | 29 | 1013.2 |
| 20260904114853 | 72 | 89 | 0.0 | 2.0 | 0.00 | 0.00 | 0.00 | 29 | 1013.2 |
| 20260904114347 | 74 | 82 | 2.0 | 2.0 | 0.00 | 0.00 | 0.00 | 27 | 1013.2 |
| 20260904113842 | 75 | 48 | 0.0 | 2.0 | 0.00 | 0.00 | 0.00 | 27 | 1013.3 |
| 20260904113342 | 75 | 100 | 1.0 | 2.0 | 0.00 | 0.00 | 0.00 | 27 | 1013.1 |
| 20260904112837 | 75 | 306 | 0.0 | 2.0 | 0.00 | 0.00 | 0.00 | 27 | 1013.1 |
| 20260904112332 | 76 | 262 | 2.0 | 2.0 | 0.00 | 0.00 | 0.00 | 26 | 1013.1 |
| 20260904111828 | 77 | 110 | 3.0 | 6.0 | 0.00 | 0.00 | 0.00 | 25 | 1013.0 |
| 20260904111324 | 75 | 146 | 1.0 | 2.0 | 0.00 | 0.00 | 0.00 | 27 | 1013.1 |
| 20260904110819 | 75 | 251 | 3.0 | 4.0 | 0.00 | 0.00 | 0.00 | 27 | 1013.0 |
| 20260904110318 | 76 | 281 | 1.0 | 2.0 | 0.00 | 0.00 | 0.00 | 27 | 1012.8 |
| 20260904105813 | 75 | 236 | 1.0 | 3.0 | 0.00 | 0.00 | 0.00 | 27 | 1012.9 |
| 20260904105308 | 74 | 233 | 2.0 | 4.0 | 0.00 | 0.00 | 0.00 | 28 | 1012.9 |
| 20260904104803 | 75 | 158 | 0.0 | 2.0 | 0.00 | 0.00 | 0.00 | 28 | 1012.8 |
| 20260904104258 | 76 | 164 | 2.0 | 2.0 | 0.00 | 0.00 | 0.00 | 28 | 1012.6 |
| 20260904103755 | 76 | 125 | 0.0 | 2.0 | 0.00 | 0.00 | 0.00 | 27 | 1012.9 |
| 20260904103254 | 75 | 139 | 0.0 | 2.0 | 0.00 | 0.00 | 0.00 | 27 | 1012.7 |
| 20260904102750 | 75 | 285 | 1.0 | 2.0 | 0.00 | 0.00 | 0.00 | 27 | 1012.6 |
| 20260904102246 | 76 | 269 | 0.0 | 2.0 | 0.00 | 0.00 | 0.00 | 27 | 1012.7 |
| 20260904101742 | 76 | 150 | 2.0 | 3.0 | 0.00 | 0.00 | 0.00 | 27 | 1012.5 |
| 20260904101238 | 75 | 150 | 0.0 | 2.0 | 0.00 | 0.00 | 0.00 | 27 | 1012.4 |
| 20260904100733 | 75 | 198 | 0.0 | 2.0 | 0.00 | 0.00 | 0.00 | 28 | 1012.5 |
| 20260904100229 | 75 | 144 | 0.0 | 1.0 | 0.00 | 0.00 | 0.00 | 29 | 1012.4 |
| 20260904095728 | 76 | 202 | 0.0 | 3.0 | 0.00 | 0.00 | 0.00 | 28 | 1012.3 |
| 20260904095224 | 75 | 145 | 0.0 | 3.0 | 0.00 | 0.00 | 0.00 | 28 | 1012.4 |
| 20260904094719 | 73 | 190 | 2.0 | 2.0 | 0.00 | 0.00 | 0.00 | 29 | 1012.1 |
| 20260904094214 | 71 | 130 | 0.0 | 2.0 | 0.00 | 0.00 | 0.00 | 31 | 1012.2 |
| 20260904093711 | 73 | 240 | 0.0 | 3.0 | 0.00 | 0.00 | 0.00 | 30 | 1012.0 |
| 20260904093209 | 73 | 91 | 2.0 | 3.0 | 0.00 | 0.00 | 0.00 | 29 | 1012.1 |
| 20260904092706 | 74 | 217 | 2.0 | 2.0 | 0.00 | 0.00 | 0.00 | 29 | 1012.1 |
| 20260904092201 | 75 | 179 | 1.0 | 3.0 | 0.00 | 0.00 | 0.00 | 29 | 1012.2 |
| 20260904091657 | 73 | 11 | 2.0 | 2.0 | 0.00 | 0.00 | 0.00 | 30 | 1012.1 |
| 20260904091157 | 72 | 322 | 0.0 | 2.0 | 0.00 | 0.00 | 0.00 | 32 | 1012.3 |
| 20260904090653 | 73 | 143 | 2.0 | 2.0 | 0.00 | 0.00 | 0.00 | 33 | 1012.5 |
| 20260904090148 | 73 | 271 | 0.0 | 1.0 | 0.00 | 0.00 | 0.00 | 31 | 1012.4 |
| 20260904085644 | 73 | 235 | 0.0 | 3.0 | 0.00 | 0.00 | 0.00 | 31 | 1012.5 |
| 20260904085143 | 75 | 55 | 0.0 | 2.0 | 0.00 | 0.00 | 0.00 | 30 | 1012.4 |
| 20260904084639 | 75 | 59 | 2.0 | 3.0 | 0.00 | 0.00 | 0.00 | 29 | 1012.6 |
| 20260904084135 | 74 | 258 | 2.0 | 4.0 | 0.00 | 0.00 | 0.00 | 30 | 1012.5 |
| 20260904083631 | 76 | 269 | 0.0 | 2.0 | 0.00 | 0.00 | 0.00 | 29 | 1012.4 |
| 20260904083127 | 76 | 231 | 2.0 | 2.0 | 0.00 | 0.00 | 0.00 | 30 | 1012.5 |
| 20260904082622 | 76 | 299 | 0.0 | 1.0 | 0.00 | 0.00 | 0.00 | 30 | 1012.6 |
| 20260904082117 | 77 | 87 | 1.0 | 2.0 | 0.00 | 0.00 | 0.00 | 30 | 1012.6 |
| 20260904081612 | 77 | 249 | 0.0 | 2.0 | 0.00 | 0.00 | 0.00 | 30 | 1012.4 |
| 20260904081108 | 77 | 224 | 0.0 | 2.0 | 0.00 | 0.00 | 0.00 | 31 | 1012.8 |
| 20260904080603 | 78 | 89 | 0.0 | 0.0 | 0.00 | 0.00 | 0.00 | 29 | 1012.8 |
| 20260904080059 | 79 | 85 | 1.0 | 2.0 | 0.00 | 0.00 | 0.00 | 28 | 1012.9 |
| 20260904075555 | 79 | 334 | 1.0 | 3.0 | 0.00 | 0.00 | 0.00 | 27 | 1012.8 |
| 20260904075049 | 80 | 15 | 2.0 | 3.0 | 0.00 | 0.00 | 0.00 | 27 | 1012.9 |
| 20260904074549 | 81 | 54 | 2.0 | 3.0 | 0.00 | 0.00 | 0.00 | 25 | 1012.8 |
| 20260904074043 | 82 | 316 | 4.0 | 8.0 | 0.00 | 0.00 | 0.00 | 21 | 1012.8 |
| 20260904073538 | 80 | 305 | 0.0 | 3.0 | 0.00 | 0.00 | 0.00 | 26 | 1013.0 |
| 20260904073035 | 79 | 248 | 1.0 | 3.0 | 0.00 | 0.00 | 0.00 | 30 | 1013.2 |
| 20260904072530 | 77 | 330 | 2.0 | 3.0 | 0.00 | 0.00 | 0.00 | 34 | 1013.1 |
| 20260904072025 | 77 | 55 | 0.0 | 1.0 | 0.00 | 0.00 | 0.00 | 36 | 1013.1 |
| 20260904071521 | 77 | 85 | 2.0 | 3.0 | 0.00 | 0.00 | 0.00 | 36 | 1013.1 |
| 20260904071016 | 77 | 63 | 0.0 | 3.0 | 0.00 | 0.00 | 0.00 | 36 | 1013.3 |
| 20260904070514 | 77 | 284 | 2.0 | 5.0 | 0.00 | 0.00 | 0.00 | 36 | 1013.1 |
| 20260904070009 | 79 | 314 | 6.0 | 7.0 | 0.00 | 0.00 | 0.00 | 34 | 1013.2 |
| 20260904065505 | 82 | 334 | 4.0 | 10.0 | 0.00 | 0.00 | 0.00 | 21 | 1013.0 |
| 20260904065000 | 80 | 174 | 0.0 | 4.0 | 0.00 | 0.00 | 0.00 | 25 | 1012.9 |
| 20260904064456 | 78 | 353 | 1.0 | 3.0 | 0.00 | 0.00 | 0.00 | 34 | 1013.1 |
| 20260904063950 | 78 | 98 | 2.0 | 2.0 | 0.00 | 0.00 | 0.00 | 34 | 1013.0 |
| 20260904063447 | 78 | 282 | 2.0 | 2.0 | 0.00 | 0.00 | 0.00 | 33 | 1013.1 |
| 20260904062942 | 78 | 226 | 0.0 | 4.0 | 0.00 | 0.00 | 0.00 | 34 | 1012.7 |
| 20260904062438 | 79 | 244 | 1.0 | 2.0 | 0.00 | 0.00 | 0.00 | 33 | 1013.0 |
| 20260904061933 | 82 | 92 | 2.0 | 5.0 | 0.00 | 0.00 | 0.00 | 30 | 1013.0 |
| 20260904061430 | 81 | 7 | 1.0 | 5.0 | 0.00 | 0.00 | 0.00 | 31 | 1012.9 |
| 20260904060926 | 80 | 198 | 1.0 | 3.0 | 0.00 | 0.00 | 0.00 | 33 | 1012.9 |
| 20260904060421 | 80 | 194 | 3.0 | 3.0 | 0.00 | 0.00 | 0.00 | 33 | 1012.9 |
| 20260904055917 | 79 | 88 | 1.0 | 4.0 | 0.00 | 0.00 | 0.00 | 34 | 1012.8 |
| 20260904055412 | 80 | 108 | 4.0 | 4.0 | 0.00 | 0.00 | 0.00 | 34 | 1012.9 |
| 20260904054908 | 80 | 139 | 2.0 | 2.0 | 0.00 | 0.00 | 0.00 | 34 | 1012.9 |
| 20260904054403 | 79 | 190 | 1.0 | 2.0 | 0.00 | 0.00 | 0.00 | 35 | 1012.8 |
| 20260904053859 | 80 | 260 | 0.0 | 2.0 | 0.00 | 0.00 | 0.00 | 35 | 1012.8 |
| 20260904053358 | 80 | 99 | 2.0 | 4.0 | 0.00 | 0.00 | 0.00 | 34 | 1012.8 |
| 20260904052854 | 80 | 52 | 0.0 | 2.0 | 0.00 | 0.00 | 0.00 | 35 | 1012.9 |
| 20260904052350 | 80 | 89 | 0.0 | 2.0 | 0.00 | 0.00 | 0.00 | 35 | 1012.8 |
| 20260904051846 | 80 | 96 | 2.0 | 2.0 | 0.00 | 0.00 | 0.00 | 35 | 1012.8 |
| 20260904051337 | 81 | 62 | 0.0 | 2.0 | 0.00 | 0.00 | 0.00 | 35 | 1012.9 |
| 20260904050837 | 81 | 91 | 2.0 | 3.0 | 0.00 | 0.00 | 0.00 | 34 | 1012.8 |
| 20260904050334 | 81 | 107 | 3.0 | 4.0 | 0.00 | 0.00 | 0.00 | 35 | 1012.8 |
| 20260904045833 | 80 | 56 | 2.0 | 3.0 | 0.00 | 0.00 | 0.00 | 35 | 1012.9 |
| 20260904045328 | 80 | 41 | 1.0 | 3.0 | 0.00 | 0.00 | 0.00 | 36 | 1013.0 |
| 20260904044828 | 80 | 66 | 0.0 | 2.0 | 0.00 | 0.00 | 0.00 | 36 | 1012.9 |
| 20260904044325 | 80 | 359 | 2.0 | 3.0 | 0.00 | 0.00 | 0.00 | 36 | 1012.9 |
| 20260904043821 | 81 | 276 | 2.0 | 3.0 | 0.00 | 0.00 | 0.00 | 34 | 1012.8 |
| 20260904043318 | 81 | 92 | 2.0 | 4.0 | 0.00 | 0.00 | 0.00 | 34 | 1012.6 |
| 20260904042817 | 81 | 67 | 2.0 | 3.0 | 0.00 | 0.00 | 0.00 | 34 | 1012.8 |
| 20260904042314 | 80 | 46 | 0.0 | 2.0 | 0.00 | 0.00 | 0.00 | 35 | 1013.0 |
| 20260904041814 | 80 | 55 | 1.0 | 2.0 | 0.00 | 0.00 | 0.00 | 36 | 1012.8 |
| 20260904041310 | 80 | 114 | 0.0 | 1.0 | 0.00 | 0.00 | 0.00 | 35 | 1012.6 |
| 20260904040806 | 81 | 265 | 1.0 | 2.0 | 0.00 | 0.00 | 0.00 | 34 | 1012.8 |
| 20260904040301 | 81 | 261 | 3.0 | 3.0 | 0.00 | 0.00 | 0.00 | 34 | 1012.6 |
| 20260904035757 | 82 | 287 | 2.0 | 2.0 | 0.00 | 0.00 | 0.00 | 32 | 1012.5 |
| 20260904035253 | 83 | 3 | 1.0 | 2.0 | 0.00 | 0.00 | 0.00 | 31 | 1012.6 |
| 20260904034751 | 84 | 330 | 4.0 | 6.0 | 0.00 | 0.00 | 0.00 | 31 | 1012.6 |
| 20260904034248 | 86 | 285 | 7.0 | 7.0 | 0.00 | 0.00 | 0.00 | 28 | 1012.3 |
| 20260904033743 | 87 | 258 | 4.0 | 10.0 | 0.00 | 0.00 | 0.00 | 27 | 1012.4 |
| 20260904033240 | 86 | 257 | 7.0 | 9.0 | 0.00 | 0.00 | 0.00 | 28 | 1012.3 |
| 20260904032736 | 86 | 242 | 8.0 | 11.0 | 0.00 | 0.00 | 0.00 | 29 | 1012.4 |
| 20260904032234 | 86 | 269 | 7.0 | 11.0 | 0.00 | 0.00 | 0.00 | 29 | 1012.2 |
| 20260904031729 | 87 | 243 | 5.0 | 13.0 | 0.00 | 0.00 | 0.00 | 29 | 1012.1 |
| 20260904031224 | 86 | 257 | 5.0 | 14.0 | 0.00 | 0.00 | 0.00 | 29 | 1012.2 |
| 20260904030720 | 87 | 263 | 5.0 | 11.0 | 0.00 | 0.00 | 0.00 | 28 | 1012.0 |
| 20260904030215 | 87 | 277 | 6.0 | 11.0 | 0.00 | 0.00 | 0.00 | 28 | 1012.0 |
| 20260904025712 | 87 | 249 | 9.0 | 9.0 | 0.00 | 0.00 | 0.00 | 28 | 1011.7 |
| 20260904025206 | 87 | 253 | 10.0 | 13.0 | 0.00 | 0.00 | 0.00 | 28 | 1011.6 |
| 20260904024702 | 87 | 252 | 6.0 | 14.0 | 0.00 | 0.00 | 0.00 | 28 | 1011.6 |
| 20260904024157 | 87 | 276 | 5.0 | 13.0 | 0.00 | 0.00 | 0.00 | 29 | 1011.5 |
| 20260904023653 | 87 | 282 | 5.0 | 10.0 | 0.00 | 0.00 | 0.00 | 29 | 1011.3 |
| 20260904023149 | 87 | 265 | 9.0 | 9.0 | 0.00 | 0.00 | 0.00 | 29 | 1011.4 |
| 20260904022648 | 87 | 273 | 6.0 | 11.0 | 0.00 | 0.00 | 0.00 | 28 | 1011.3 |
| 20260904022146 | 87 | 263 | 5.0 | 11.0 | 0.00 | 0.00 | 0.00 | 29 | 1011.2 |
| 20260904021641 | 87 | 264 | 5.0 | 10.0 | 0.00 | 0.00 | 0.00 | 29 | 1011.4 |
| 20260904021136 | 87 | 258 | 11.0 | 14.0 | 0.00 | 0.00 | 0.00 | 29 | 1011.3 |
| 20260904020633 | 88 | 259 | 8.0 | 13.0 | 0.00 | 0.00 | 0.00 | 28 | 1011.2 |
| 20260904020126 | 88 | 284 | 7.0 | 10.0 | 0.00 | 0.00 | 0.00 | 29 | 1011.5 |
| 20260904015620 | 88 | 293 | 6.0 | 13.0 | 0.00 | 0.00 | 0.00 | 29 | 1011.4 |
| 20260904015119 | 89 | 249 | 9.0 | 18.0 | 0.00 | 0.00 | 0.00 | 29 | 1011.4 |
| 20260904014619 | 88 | 271 | 6.0 | 12.0 | 0.00 | 0.00 | 0.00 | 29 | 1011.5 |
| 20260904014114 | 89 | 258 | 9.0 | 13.0 | 0.00 | 0.00 | 0.00 | 29 | 1011.2 |
| 20260904013611 | 89 | 281 | 8.0 | 11.0 | 0.00 | 0.00 | 0.00 | 28 | 1011.3 |
| 20260904013107 | 89 | 269 | 6.0 | 13.0 | 0.00 | 0.00 | 0.00 | 28 | 1011.4 |
| 20260904012602 | 90 | 274 | 11.0 | 14.0 | 0.00 | 0.00 | 0.00 | 28 | 1011.4 |
| 20260904012101 | 90 | 266 | 7.0 | 10.0 | 0.00 | 0.00 | 0.00 | 27 | 1011.3 |
| 20260904011600 | 91 | 251 | 7.0 | 9.0 | 0.00 | 0.00 | 0.00 | 27 | 1011.3 |
| 20260904011056 | 91 | 297 | 7.0 | 10.0 | 0.00 | 0.00 | 0.00 | 26 | 1011.5 |
| 20260904010552 | 92 | 279 | 4.0 | 5.0 | 0.00 | 0.00 | 0.00 | 25 | 1011.5 |
| 20260904010049 | 93 | 249 | 8.0 | 15.0 | 0.00 | 0.00 | 0.00 | 25 | 1011.4 |
| 20260904005548 | 94 | 313 | 5.0 | 10.0 | 0.00 | 0.00 | 0.00 | 24 | 1011.4 |
| 20260904005043 | 93 | 272 | 7.0 | 11.0 | 0.00 | 0.00 | 0.00 | 25 | 1011.2 |
| 20260904004539 | 93 | 256 | 5.0 | 14.0 | 0.00 | 0.00 | 0.00 | 25 | 1011.3 |
| 20260904004034 | 94 | 305 | 7.0 | 14.0 | 0.00 | 0.00 | 0.00 | 26 | 1011.2 |
| 20260904003530 | 94 | 265 | 7.0 | 13.0 | 0.00 | 0.00 | 0.00 | 25 | 1011.1 |
| 20260904003025 | 95 | 304 | 8.0 | 10.0 | 0.00 | 0.00 | 0.00 | 24 | 1011.1 |
| 20260904002521 | 95 | 290 | 5.0 | 11.0 | 0.00 | 0.00 | 0.00 | 24 | 1011.3 |
| 20260904002021 | 95 | 297 | 9.0 | 11.0 | 0.00 | 0.00 | 0.00 | 24 | 1011.4 |
| 20260904001517 | 95 | 244 | 12.0 | 16.0 | 0.00 | 0.00 | 0.00 | 25 | 1011.2 |
| 20260904001016 | 95 | 256 | 5.0 | 14.0 | 0.00 | 0.00 | 0.00 | 23 | 1011.2 |
| 20260904000515 | 95 | 317 | 11.0 | 16.0 | 0.00 | 0.00 | 0.00 | 24 | 1011.2 |
| 20260904000012 | 95 | 266 | 12.0 | 20.0 | 0.00 | 0.00 | 0.00 | 24 | 1011.3 |
| 20260903235511 | 95 | 307 | 7.0 | 15.0 | 0.00 | 0.00 | 0.00 | 24 | 1011.2 |
| 20260903235007 | 95 | 242 | 9.0 | 19.0 | 0.00 | 0.00 | 0.00 | 23 | 1011.3 |
| 20260903234502 | 95 | 271 | 6.0 | 18.0 | 0.00 | 0.00 | 0.00 | 25 | 1011.3 |
| 20260903233958 | 96 | 268 | 12.0 | 19.0 | 0.00 | 0.00 | 0.00 | 25 | 1011.2 |
| 20260903233454 | 96 | 261 | 9.0 | 11.0 | 0.00 | 0.00 | 0.00 | 25 | 1011.5 |
| 20260903232949 | 95 | 248 | 11.0 | 19.0 | 0.00 | 0.00 | 0.00 | 25 | 1011.7 |
| 20260903232444 | 96 | 258 | 9.0 | 14.0 | 0.00 | 0.00 | 0.00 | 24 | 1011.6 |
| 20260903231944 | 95 | 263 | 12.0 | 17.0 | 0.00 | 0.00 | 0.00 | 23 | 1011.8 |
| 20260903231439 | 96 | 268 | 8.0 | 22.0 | 0.00 | 0.00 | 0.00 | 23 | 1012.0 |
| 20260903230933 | 96 | 292 | 8.0 | 18.0 | 0.00 | 0.00 | 0.00 | 22 | 1011.8 |
| 20260903230429 | 97 | 295 | 9.0 | 15.0 | 0.00 | 0.00 | 0.00 | 22 | 1012.1 |
| 20260903225926 | 97 | 258 | 10.0 | 19.0 | 0.00 | 0.00 | 0.00 | 21 | 1012.0 |
| 20260903225421 | 97 | 249 | 13.0 | 20.0 | 0.00 | 0.00 | 0.00 | 20 | 1011.8 |
| 20260903224917 | 97 | 258 | 11.0 | 20.0 | 0.00 | 0.00 | 0.00 | 20 | 1012.2 |
| 20260903224413 | 98 | 277 | 10.0 | 15.0 | 0.00 | 0.00 | 0.00 | 19 | 1012.2 |
| 20260903223909 | 98 | 237 | 5.0 | 14.0 | 0.00 | 0.00 | 0.00 | 18 | 1012.2 |
| 20260903223408 | 98 | 254 | 10.0 | 18.0 | 0.00 | 0.00 | 0.00 | 17 | 1012.1 |
| 20260903222907 | 97 | 253 | 14.0 | 17.0 | 0.00 | 0.00 | 0.00 | 18 | 1012.3 |
| 20260903222403 | 98 | 280 | 8.0 | 17.0 | 0.00 | 0.00 | 0.00 | 17 | 1012.4 |
| 20260903221857 | 98 | 242 | 15.0 | 21.0 | 0.00 | 0.00 | 0.00 | 17 | 1012.2 |
| 20260903221355 | 99 | 229 | 13.0 | 20.0 | 0.00 | 0.00 | 0.00 | 16 | 1012.4 |
| 20260903220854 | 100 | 259 | 9.0 | 17.0 | 0.00 | 0.00 | 0.00 | 15 | 1012.3 |
| 20260903220348 | 99 | 304 | 9.0 | 13.0 | 0.00 | 0.00 | 0.00 | 16 | 1012.4 |
| 20260903215847 | 100 | 241 | 13.0 | 15.0 | 0.00 | 0.00 | 0.00 | 16 | 1012.3 |
| 20260903215343 | 99 | 231 | 11.0 | 15.0 | 0.00 | 0.00 | 0.00 | 16 | 1012.4 |
| 20260903214842 | 99 | 286 | 9.0 | 13.0 | 0.00 | 0.00 | 0.00 | 16 | 1012.4 |
| 20260903214338 | 99 | 246 | 17.0 | 18.0 | 0.00 | 0.00 | 0.00 | 16 | 1012.2 |
| 20260903213837 | 99 | 302 | 8.0 | 16.0 | 0.00 | 0.00 | 0.00 | 16 | 1012.4 |
| 20260903213332 | 99 | 254 | 14.0 | 15.0 | 0.00 | 0.00 | 0.00 | 16 | 1012.5 |
| 20260903212828 | 99 | 263 | 7.0 | 19.0 | 0.00 | 0.00 | 0.00 | 15 | 1012.6 |
| 20260903212325 | 99 | 265 | 4.0 | 15.0 | 0.00 | 0.00 | 0.00 | 15 | 1012.6 |
| 20260903211824 | 99 | 327 | 13.0 | 20.0 | 0.00 | 0.00 | 0.00 | 15 | 1012.7 |
| 20260903211320 | 99 | 310 | 9.0 | 15.0 | 0.00 | 0.00 | 0.00 | 15 | 1012.8 |
| 20260903210816 | 100 | 309 | 8.0 | 14.0 | 0.00 | 0.00 | 0.00 | 14 | 1012.7 |
| 20260903210311 | 100 | 319 | 10.0 | 13.0 | 0.00 | 0.00 | 0.00 | 14 | 1012.8 |
| 20260903205810 | 99 | 310 | 5.0 | 15.0 | 0.00 | 0.00 | 0.00 | 14 | 1012.8 |
| 20260903205310 | 99 | 259 | 8.0 | 13.0 | 0.00 | 0.00 | 0.00 | 14 | 1012.9 |
| 20260903204805 | 99 | 309 | 6.0 | 13.0 | 0.00 | 0.00 | 0.00 | 13 | 1012.9 |
| 20260903204301 | 99 | 299 | 3.0 | 13.0 | 0.00 | 0.00 | 0.00 | 13 | 1012.8 |
| 20260903203757 | 99 | 308 | 8.0 | 11.0 | 0.00 | 0.00 | 0.00 | 13 | 1012.8 |
| 20260903203252 | 100 | 290 | 8.0 | 11.0 | 0.00 | 0.00 | 0.00 | 13 | 1013.0 |
| 20260903202751 | 101 | 346 | 4.0 | 6.0 | 0.00 | 0.00 | 0.00 | 12 | 1013.0 |
| 20260903202248 | 100 | 308 | 5.0 | 6.0 | 0.00 | 0.00 | 0.00 | 12 | 1013.2 |
| 20260903201746 | 99 | 301 | 5.0 | 9.0 | 0.00 | 0.00 | 0.00 | 12 | 1013.2 |
| 20260903201242 | 99 | 105 | 1.0 | 8.0 | 0.00 | 0.00 | 0.00 | 11 | 1013.0 |
| 20260903200741 | 98 | 297 | 4.0 | 5.0 | 0.00 | 0.00 | 0.00 | 11 | 1013.3 |
| 20260903200236 | 99 | 354 | 3.0 | 6.0 | 0.00 | 0.00 | 0.00 | 12 | 1013.3 |
| 20260903195732 | 100 | 187 | 3.0 | 4.0 | 0.00 | 0.00 | 0.00 | 10 | 1013.4 |
| 20260903195228 | 100 | 201 | 1.0 | 4.0 | 0.00 | 0.00 | 0.00 | 10 | 1013.4 |
| 20260903194728 | 100 | 344 | 1.0 | 3.0 | 0.00 | 0.00 | 0.00 | 10 | 1013.5 |
| 20260903194223 | 99 | 221 | 4.0 | 4.0 | 0.00 | 0.00 | 0.00 | 11 | 1013.7 |
| 20260903193719 | 98 | 63 | 2.0 | 5.0 | 0.00 | 0.00 | 0.00 | 11 | 1013.5 |
| 20260903193214 | 100 | 86 | 0.0 | 3.0 | 0.00 | 0.00 | 0.00 | 10 | 1013.8 |
| 20260903192710 | 98 | 39 | 2.0 | 4.0 | 0.00 | 0.00 | 0.00 | 11 | 1013.9 |
| 20260903192205 | 98 | 102 | 5.0 | 6.0 | 0.00 | 0.00 | 0.00 | 11 | 1014.0 |
| 20260903191701 | 96 | 275 | 1.0 | 8.0 | 0.00 | 0.00 | 0.00 | 11 | 1014.0 |
| 20260903191156 | 98 | 118 | 3.0 | 4.0 | 0.00 | 0.00 | 0.00 | 11 | 1014.1 |
| 20260903190651 | 99 | 55 | 0.0 | 4.0 | 0.00 | 0.00 | 0.00 | 10 | 1014.3 |
| 20260903190151 | 99 | 221 | 0.0 | 4.0 | 0.00 | 0.00 | 0.00 | 10 | 1014.3 |